Theta_e
327 331 335 335 336 336 336 338 338 339 339 339 341 341 342 343 342 341 342 342 341 341 339 342 347 350 354 354 354 353 353 350 349
325 328 332 335 337 338 337 338 338 338 338 339 341 342 343 343 343 342 342 342 343 342 342 344 346 349 352 354 353 354 353 351 350
323 327 330 332 335 337 339 339 340 340 340 339 341 343 343 344 344 344 344 342 341 342 342 344 347 349 350 353 354 354 353 352 352
323 325 327 330 333 336 338 340 340 340 339 339 340 342 343 344 344 345 345 343 342 342 343 342 344 348 350 351 353 354 353 353 353
324 325 326 329 332 335 335 337 339 340 340 340 341 343 343 344 345 346 344 344 344 344 342 342 344 346 349 350 352 354 353 352 353
316 324 326 327 330 332 334 335 338 339 340 339 341 343 344 344 344 344 344 345 344 344 344 344 345 344 345 347 350 352 354 354 353
309 320 324 326 329 332 333 335 337 339 340 341 340 341 343 343 344 344 345 346 348 346 345 344 344 346 348 349 350 351 352 354 353
311 310 323 326 328 331 333 334 336 338 340 341 341 340 341 342 344 345 345 344 345 349 349 346 346 344 345 347 349 351 352 353 354
322 315 313 326 329 332 332 334 335 337 339 340 342 340 340 342 344 345 345 345 345 344 345 349 349 347 347 345 346 339 337 347 352
320 325 326 315 328 332 333 334 336 336 339 341 341 341 341 342 343 344 345 347 347 346 344 345 346 348 348 347 347 333 333 338 352
317 323 331 326 330 333 335 335 336 337 339 340 341 341 342 343 343 343 345 346 348 349 349 347 345 346 348 348 348 331 330 334 349
318 321 324 335 331 332 334 335 336 336 337 339 340 341 342 344 345 345 345 345 347 350 352 351 350 349 347 347 348 329 328 331 346
314 321 322 336 335 331 331 333 336 334 334 336 337 341 343 346 347 347 347 348 347 349 351 352 354 353 353 344 350 331 324 330 349
311 318 322 326 337 339 342 334 335 333 333 334 338 341 344 346 347 347 348 349 351 351 351 352 352 353 355 355 350 350 323 321 347
308 309 319 322 323 331 340 347 338 333 334 338 340 341 343 344 346 347 348 349 350 352 352 351 352 353 353 356 358 332 326 319 322
307 308 310 320 322 323 327 336 348 345 344 342 344 340 340 341 344 348 350 349 350 350 352 351 351 352 352 354 357 358 323 318 319
305 307 308 312 319 322 323 326 331 340 345 347 345 344 346 347 346 345 347 350 352 351 351 351 352 352 352 353 355 356 358 343 333
307 306 307 308 312 318 322 325 326 330 337 340 341 342 344 347 348 346 349 349 346 351 354 346 352 352 353 353 353 354 341 343 352
306 305 306 307 309 314 319 322 323 327 331 334 336 338 339 339 344 348 348 345 337 305 307 304 304 307 328 354 329 321 312 312 312
306 307 306 308 309 313 316 317 318 323 328 331 332 334 337 338 335 342 345 344 340 337 321 302 301 302 302 302 316 309 309 308 302
Wind_Speed
19 21 20 22 24 22 21 21 21 18 18 18 16 16 16 14 12 8 8 9 6 6 5 5 6 7 6 7 6 5 5 3 4
21 23 23 24 24 22 21 21 22 21 19 19 18 19 16 14 12 12 11 10 8 7 6 5 6 6 7 8 8 8 6 5 6
19 21 22 20 21 23 21 22 21 21 21 21 19 19 16 14 15 14 12 9 10 8 7 7 6 7 7 7 8 8 7 6 6
17 20 22 23 23 23 23 20 20 22 21 21 18 17 16 16 14 14 12 11 11 10 8 9 9 7 7 8 8 8 8 9 7
16 20 22 21 23 22 21 21 21 23 21 20 19 18 17 17 15 14 14 13 12 11 11 8 9 8 9 8 8 8 10 10 8
10 12 13 16 15 19 21 21 21 21 19 20 19 17 17 16 15 15 16 15 12 12 11 11 10 10 11 10 10 9 9 10 10
6 9 14 15 16 19 20 20 21 20 20 19 18 17 17 17 17 16 15 14 13 13 12 12 11 11 12 12 10 10 10 10 10
7 9 9 14 18 19 20 18 17 18 17 18 18 18 17 17 15 15 13 13 14 13 13 14 13 12 13 12 11 10 12 11 11
8 7 13 17 21 21 22 20 20 20 19 20 19 18 18 16 15 15 15 15 14 13 13 14 13 14 13 13 11 15 17 14 12
10 12 11 18 22 23 22 22 20 21 20 18 19 18 18 16 15 15 16 14 13 14 14 12 14 14 13 14 14 15 16 18 13
13 14 15 9 14 18 21 18 17 14 17 18 18 17 15 14 15 15 13 13 14 13 12 14 13 13 14 14 13 14 18 16 14
13 14 14 10 4 7 9 15 15 15 16 15 14 15 15 15 15 15 14 15 14 13 13 13 14 14 14 15 15 16 17 13 13
17 15 14 12 9 7 12 11 15 14 15 15 16 18 17 14 14 15 15 16 15 12 12 13 11 13 14 16 16 14 17 15 10
15 14 17 15 16 13 8 2 15 14 13 17 14 12 12 13 14 16 15 13 12 12 12 11 11 12 12 14 14 14 16 19 13
16 18 20 20 16 15 13 9 8 7 7 4 8 11 13 14 13 12 11 13 12 12 12 12 12 12 11 10 12 15 15 19 21
11 12 13 13 14 14 16 15 11 11 3 4 8 9 8 10 10 11 11 13 12 10 11 11 10 9 9 9 8 9 16 18 20
10 9 11 11 15 15 16 14 13 11 10 7 7 7 6 6 6 6 6 7 8 9 9 9 9 9 9 8 7 7 8 9 8
7 7 9 9 10 11 12 11 11 11 10 8 8 7 6 5 3 5 5 4 5 8 8 8 9 9 8 8 8 10 12 11 9
5 6 6 8 8 8 9 9 9 9 9 8 6 5 4 4 2 1 1 3 4 3 2 2 2 5 6 7 11 11 14 15 14
7 7 7 6 6 6 7 8 7 5 6 6 6 4 3 2 2 1 0 2 4 5 2 2 2 6 8 9 6 12 14 16 5
Wind_Direction
202 202 202 201 201 199 199 198 196 188 187 192 188 190 196 197 193 191 198 194 198 194 192 194 193 204 202 212 212 212 207 193 206
195 201 200 200 201 201 197 197 197 190 189 194 192 194 193 197 194 192 197 195 196 199 183 198 197 197 203 213 213 213 201 214 223
201 204 205 201 200 200 200 199 196 193 191 192 191 195 195 196 194 197 195 187 198 199 196 191 184 195 203 210 216 215 201 219 224
202 202 204 202 203 199 199 197 193 195 193 192 195 194 194 195 197 196 196 196 198 200 196 196 198 197 204 216 213 208 206 219 221
207 203 203 204 203 197 195 194 191 193 191 191 193 190 192 195 193 191 195 198 196 193 197 193 201 195 211 218 216 206 207 219 215
214 213 213 203 193 196 197 189 188 189 187 191 191 187 191 194 192 191 199 198 191 192 193 198 197 197 216 221 221 212 210 216 218
243 206 206 198 193 193 194 188 186 183 188 188 187 187 191 193 195 195 199 198 194 192 193 199 198 201 213 216 212 215 216 215 218
285 258 201 191 196 192 196 189 183 182 184 184 182 186 190 197 195 194 192 191 193 195 193 202 205 203 215 217 217 218 218 216 219
324 269 241 209 200 191 189 186 186 180 178 181 179 185 193 193 192 192 194 196 195 194 198 205 204 213 214 217 221 219 214 214 221
327 320 285 223 206 192 187 184 182 182 176 171 179 186 191 190 189 193 199 195 191 196 201 198 209 216 215 223 226 220 214 210 224
338 340 334 279 192 194 189 179 178 157 165 174 181 186 186 185 188 193 192 192 197 198 197 202 204 213 217 223 229 213 214 209 222
358 355 328 305 180 155 157 162 162 156 163 169 172 181 185 186 185 186 187 196 198 199 198 205 211 212 214 219 229 215 213 196 220
4 1 4 4 27 82 128 144 152 150 163 167 178 185 187 181 183 187 192 197 198 198 203 211 211 219 218 217 227 214 210 201 222
9 8 19 19 42 52 34 146 152 160 160 186 186 173 169 176 186 193 194 192 195 194 200 209 211 215 219 221 218 226 205 200 214
10 8 13 19 33 37 28 39 90 124 157 141 156 163 176 183 189 192 190 190 193 196 198 205 210 213 224 220 220 215 208 204 207
2 10 15 17 29 29 29 29 47 74 33 128 146 146 170 187 189 189 190 192 194 194 199 206 210 212 222 226 217 219 210 207 210
358 2 15 13 27 26 28 17 21 29 32 50 88 106 137 169 163 172 186 190 194 197 200 205 212 212 221 224 218 208 206 213 217
337 346 8 17 26 22 19 14 17 13 17 27 54 67 68 71 108 178 185 176 193 202 206 209 208 216 214 210 214 213 205 199 205
326 345 355 10 15 15 5 9 9 7 5 16 36 56 54 57 66 89 169 180 192 54 321 254 210 242 228 220 227 195 203 209 210
324 326 341 4 353 348 355 357 349 343 348 1 16 27 34 44 47 17 270 187 217 237 253 6 273 246 249 231 260 210 210 215 173